#timestamp,LO_Frequency,Hit,StdDev 
1513670415.0,286046995.3,N
1513670415.9,286046995.3,N
1513670435.8,286046995.8,N
1513670455.6,286046995.5,N
1513670475.4,286046995.7,N
1513670495.3,286046993.5,N
1513670515.1,286046988.5,Y
1513670535.9,286046985.3,P
1513670555.7,286046986.0,N
1513670575.5,286046985.1,N
1513670595.4,286046981.6,N
1513670615.2,286046978.7,Y
1513670635.0,286046990.9,P
1513670635.9,286046990.9,P
1513670655.8,286046988.6,P
1513670675.6,286046984.6,Y
1513670695.5,286046992.4,P
1513670715.3,286046989.1,P
1513670735.1,286046989.3,P
1513670755.9,286046987.5,Y
1513670775.7,286046999.4,P
1513670795.6,286046999.5,N
1513670815.4,286046998.6,N
1513670835.2,286046996.5,N
1513670855.1,286046996.1,N
1513670856.0,286046996.1,N
1513670875.8,286046995.3,N
1513670895.7,286046995.5,N
1513670915.5,286046995.5,N
1513670935.3,286046998.0,N
1513670955.2,286046999.4,N
1513670975.0,286046997.2,N
1513670975.9,286046997.2,N
1513670995.8,286046998.3,N
1513671015.6,286047001.0,N
1513671035.4,286047002.8,N
1513671055.3,286047004.3,N
1513671075.1,286047006.0,N
1513671095.8,286047006.3,N
1513671115.7,286047006.4,N
1513671135.5,286047006.9,N
1513671155.4,286047010.4,N
1513671175.2,286047009.0,N
1513671195.0,286047006.1,N
1513671195.9,286047006.1,N
1513671215.8,286047006.5,N
1513671235.6,286047006.1,N
1513671255.5,286047008.1,N
1513671275.3,286047010.1,N
1513671295.1,286047011.6,N
1513671315.9,286047013.0,N
1513671335.7,286047015.8,N
1513671355.5,286047019.9,Y
1513671375.4,286047014.7,P
1513671395.2,286047020.7,P
1513671415.1,286047022.8,P
1513671416.0,286047022.8,Y
1513671435.8,286047006.9,P
1513671455.6,286047004.9,N
1513671475.5,286047007.2,N
1513671495.3,286047008.3,N
1513671515.2,286047006.6,N
1513671535.9,286047008.6,N
1513671555.7,286047009.6,Y
1513671575.6,286047002.4,P
1513671595.4,286047004.4,N
1513671615.3,286047004.2,N
1513671635.1,286047001.4,N
1513671636.0,286047001.4,N
1513671655.8,286047005.7,N
1513671675.7,286047004.6,N
1513671695.5,286047005.7,N
1513671715.4,286047007.0,Y
1513671735.2,286047002.5,P
1513671755.0,286047002.5,N
1513671755.9,286047002.5,P
1513671775.8,286047003.9,Y
1513671795.6,286047003.7,P
1513671815.4,286047003.7,P
1513671835.3,286047001.3,P
1513671855.1,286047002.5,N
1513671875.9,286047002.6,N
1513671895.7,286047002.0,N
1513671915.5,286047001.7,N
1513671935.4,286047002.2,N
1513671955.2,286047004.3,Y
1513671975.1,286046999.9,P
1513671976.0,286046999.9,N
1513671995.8,286047002.4,N
1513672015.6,286047011.9,Y
1513672035.5,286047007.6,P
1513672055.3,286047008.9,N
1513672075.2,286047010.4,P
1513672095.9,286047010.7,Y
1513672115.7,286047002.5,P
1513672135.6,286047003.7,N
1513672155.4,286047002.3,N
1513672175.2,286047002.5,N
1513672195.1,286047002.1,N
1513672196.0,286047002.1,N
1513672215.8,286047001.9,N
1513672235.7,286047003.5,N
1513672255.5,286047011.9,Y
1513672275.3,286047000.3,P
1513672295.2,286047002.5,N
1513672315.0,286047001.0,N
1513672315.9,286047001.0,N
1513672335.8,286046999.9,N
1513672355.6,286047002.0,N
1513672375.4,286047001.5,N
1513672395.3,286047001.8,N
1513672415.1,286047003.3,Y
1513672435.9,286047001.3,P
1513672455.7,286047004.4,P
1513672475.5,286047005.9,P
1513672495.4,286047006.0,Y
1513672515.2,286046999.7,P
1513672535.0,286047003.6,N
1513672536.0,286047003.6,N
1513672555.8,286047004.8,N
1513672575.6,286047003.0,N
1513672595.5,286047009.2,Y
1513672615.3,286047004.7,P
1513672635.1,286047003.8,P
1513672655.9,286047002.9,P
1513672675.7,286047003.6,Y
1513672695.6,286047000.4,P
1513672715.4,286046999.8,N
1513672735.2,286047000.8,N
1513672755.1,286047003.9,N
1513672756.0,286047003.9,N
1513672775.8,286047003.9,N
1513672795.7,286047003.0,N
1513672815.5,286047001.7,N
1513672835.3,286046999.9,N
1513672855.2,286046998.6,N
1513672875.0,286046998.7,N
1513672875.9,286046998.7,N
1513672895.8,286047001.1,N
1513672915.6,286047000.2,N
1513672935.4,286047000.9,N
1513672955.3,286047000.0,N
1513672975.1,286047000.0,N
1513672995.8,286047002.8,N
1513673015.7,286046999.7,N
1513673035.5,286047002.8,N
1513673055.4,286047000.4,N
1513673075.2,286047001.1,N
1513673095.0,286046998.8,N
1513673095.9,286046998.8,N
1513673115.8,286046998.7,N
1513673135.6,286046998.4,N
1513673155.5,286046998.3,N
1513673175.3,286046995.0,N
1513673195.1,286046997.5,N
1513673215.9,286046995.5,N
1513673235.7,286046997.7,N
1513673255.5,286046995.6,N
1513673275.4,286046996.2,N
1513673295.2,286046995.0,N
1513673315.1,286046995.3,N
1513673316.0,286046995.3,N
1513673335.8,286046995.6,N
1513673355.6,286046995.1,N
1513673375.5,286047000.7,N
1513673395.3,286046998.1,N
1513673415.2,286047002.6,N
1513673435.9,286047005.3,N
1513673455.7,286047004.1,N
1513673475.6,286047001.8,N
1513673495.4,286047004.1,N
1513673515.2,286047004.0,N
1513673535.1,286047005.8,N
1513673536.0,286047005.8,N
1513673555.8,286047005.8,N
1513673575.7,286047005.9,N
1513673595.5,286047007.2,N
1513673615.3,286047004.5,N
1513673635.2,286047005.1,N
1513673655.0,286047007.3,N
1513673655.9,286047007.3,N
1513673675.8,286047006.6,N
1513673695.6,286047008.9,N
1513673715.4,286047010.7,N
1513673735.3,286047011.0,N
1513673755.1,286047009.5,N
1513673775.9,286047009.6,N
1513673795.7,286047007.8,N
1513673815.5,286047007.9,N
1513673835.4,286047006.3,N
1513673855.2,286047004.7,N
1513673875.0,286047006.4,N
1513673875.9,286047006.4,N
1513673895.8,286047006.7,N
1513673915.6,286047007.5,N
1513673935.5,286047009.0,Y
1513673955.3,286047001.8,P
1513673975.1,286047001.8,N
1513673995.9,286047002.4,N
